This demonstration page uses our WeatherBlox Daily Observations layout. Learn more.

Left ArrowRight Arrow

Hourly Observations for June 9, 2020

Temp ( °F °C ) Dew Point ( °F °C ) Humidity (%) Winds ( mph kmh ) Pressure ( in mb ) Visibility ( mi km ) Precip ( " mm )
12:56 am 00:56 Clear 76 24.3 63 17.3 65 65 SSE 7 11 29.63 1003 10 16 0.00 0.00
1:56 am 01:56 Clear 74 23.5 64 17.9 71 71 SE 6 9 29.61 1003 10 16 0.00 0.00
2:56 am 02:56 Clear 72 22.1 65 18.3 79 79 Calm 29.60 1002 10 16 0.00 0.00
3:56 am 03:56 Clear 73 22.6 66 19 80 80 ESE 5 7 29.58 1002 10 16 0.00 0.00
4:56 am 04:56 Clear 71 21.5 66 18.7 84 84 Calm 29.56 1001 10 16 0.00 0.00
5:56 am 05:56 Sunny 68 19.9 65 18.2 90 90 NE 3 6 29.55 1001 10 16 0.00 0.00
6:56 am 06:56 Mostly Sunny 71 21.6 67 19.3 87 87 E 5 7 29.55 1001 10 16 0.00 0.00
7:56 am 07:56 Sunny 75 24 67 19.7 77 77 SE 5 7 29.52 1000 10 16 0.00 0.00
8:56 am 08:56 Sunny 77 24.9 68 20.1 75 75 E 5 7 29.51 999 10 16 0.00 0.00
9:56 am 09:56 Mostly Sunny 81 27.1 70 21.1 70 70 E 8 13 29.53 1000 10 16 0.00 0.00
10:56 am 10:56 Sunny 81 27.1 70 20.9 69 69 E 14 22 29.50 999 10 16 0.00 0.00
11:56 am 11:56 Sunny 85 29.2 71 21.6 64 64 E 7 11 29.49 999 10 16 0.00 0.00
12:56 pm 12:56 Mostly Sunny 87 30.6 71 21.6 59 59 E 9 15 29.47 998 10 16 0.00 0.00
1:56 pm 13:56 Mostly Cloudy 87 30.6 71 21.9 60 60 E 8 13 29.45 997 10 16 0.00 0.00
2:56 pm 14:56 Sunny 89 31.4 71 21.5 56 56 E 9 15 29.42 996 10 16 0.00 0.00
3:56 pm 15:56 Partly Cloudy 87 30.5 70 21.3 58 58 SE 9 15 29.42 996 10 16 0.00 0.00
4:56 pm 16:56 Mostly Cloudy 86 29.9 71 21.5 61 61 ESE 8 13 29.40 996 10 16 0.00 0.00
5:56 pm 17:56 Partly Cloudy 87 30.3 71 21.6 60 60 SE 10 17 29.39 995 10 16 0.00 0.00
6:56 pm 18:56 Mostly Cloudy 86 29.8 71 21.4 61 61 ESE 12 19 29.37 995 10 16 0.00 0.00
7:56 pm 19:56 Cloudy 69 20.4 65 18.1 87 87 N 20 31 29.40 996 10 16 0.01 0.25
8:11 pm 20:11 Cloudy with Thunderstorms 70 21 64 18 83 83 NNW 24 39 29.38 995 10 16 0.00 0.00
8:15 pm 20:15 Cloudy with Thunderstorms 68 20 64 18 88 88 NNW 24 39 29.39 995 5 8 0.00 0.00
8:24 pm 20:24 Cloudy with Strong Thunderstorms 66 19 64 18 94 94 WNW 28 44 29.42 996 2 2 0.00 0.00
8:33 pm 20:33 Cloudy with Strong Thunderstorms 64 18 63 17 94 94 WNW 28 44 29.45 997 1 2 0.00 0.00
8:46 pm 20:46 Cloudy with Strong Thunderstorms 63 17 61 16 94 94 NW 26 43 29.49 999 1 2 0.00 0.00
8:56 pm 20:56 Cloudy with Strong Thunderstorms 62 16.9 61 15.9 94 94 N 31 50 29.45 997 1 2 1.45 36.83
9:08 pm 21:08 Cloudy with Thunderstorms 64 18 63 17 94 94 N 26 43 29.42 996 2 4 0.00 0.00
9:23 pm 21:23 Mostly Cloudy with Thunderstorms 64 18 63 17 94 94 N 17 28 29.44 997 10 16 0.00 0.00
9:44 pm 21:44 Cloudy 64 18 61 16 88 88 NNE 23 37 29.44 997 10 16 0.00 0.00
9:56 pm 21:56 Cloudy 64 17.5 61 16 91 91 NNE 23 37 29.45 997 10 16 0.36 9.14
10:56 pm 22:56 Mostly Cloudy 64 18 62 16.5 91 91 N 13 20 29.48 998 10 16 0.01 0.25
11:11 pm 23:11 Mostly Cloudy 66 19 63 17 88 88 N 13 20 29.48 998 10 16 0.00 0.00
11:56 pm 23:56 Cloudy 66 18.8 62 16.8 88 88 N 14 22 29.50 999 10 16 0.00 0.00

Powered by AerisWeather